| time (UTC) | temp F | wind direction | speed MPH | gust MPH | rain 1hr in | rain 24hr in | rain mn in | humidity % | barometer mb |
| 20260510230024 | 67 | 89 | 11.0 | 18.0 | 0.00 | 0.00 | 0.00 | 34 | 1023.5 |
| 20260510224521 | 67 | 125 | 9.0 | 21.0 | 0.00 | 0.00 | 0.00 | 33 | 1023.5 |
| 20260510223021 | 67 | 84 | 10.0 | 23.0 | 0.00 | 0.00 | 0.00 | 33 | 1023.5 |
| 20260510221521 | 67 | 42 | 12.0 | 28.0 | 0.00 | 0.00 | 0.00 | 32 | 1023.5 |
| 20260510220021 | 68 | 152 | 16.0 | 23.0 | 0.00 | 0.00 | 0.00 | 29 | 1023.3 |
| 20260510214521 | 69 | 95 | 9.0 | 17.0 | 0.00 | 0.00 | 0.00 | 27 | 1023.3 |
| 20260510213020 | 69 | 105 | 6.0 | 18.0 | 0.00 | 0.00 | 0.00 | 28 | 1023.3 |
| 20260510211519 | 68 | 139 | 14.0 | 21.0 | 0.00 | 0.00 | 0.00 | 25 | 1023.3 |
| 20260510210019 | 66 | 150 | 5.0 | 15.0 | 0.00 | 0.00 | 0.00 | 29 | 1023.2 |
| 20260510204531 | 64 | 67 | 11.0 | 16.0 | 0.00 | 0.00 | 0.00 | 32 | 1023.8 |
| 20260510203019 | 64 | 100 | 9.0 | 16.0 | 0.00 | 0.00 | 0.00 | 31 | 1024.1 |
| 20260510201515 | 64 | 76 | 6.0 | 14.0 | 0.00 | 0.00 | 0.00 | 34 | 1024.0 |
| 20260510200015 | 66 | 120 | 9.0 | 17.0 | 0.00 | 0.00 | 0.00 | 34 | 1023.5 |
| 20260510194514 | 68 | 133 | 8.0 | 19.0 | 0.00 | 0.00 | 0.00 | 31 | 1023.5 |
| 20260510193015 | 70 | 183 | 7.0 | 20.0 | 0.00 | 0.00 | 0.00 | 20 | 1023.3 |
| 20260510191511 | 68 | 225 | 5.0 | 12.0 | 0.00 | 0.00 | 0.00 | 21 | 1023.3 |
| 20260510190015 | 68 | 248 | 3.0 | 11.0 | 0.00 | 0.00 | 0.00 | 22 | 1023.5 |
| 20260510184508 | 68 | 249 | 6.0 | 17.0 | 0.00 | 0.00 | 0.00 | 21 | 1023.6 |
| 20260510183008 | 68 | 176 | 8.0 | 14.0 | 0.00 | 0.00 | 0.00 | 24 | 1023.7 |
| 20260510181503 | 68 | 197 | 7.0 | 12.0 | 0.00 | 0.00 | 0.00 | 24 | 1023.6 |
| 20260510180111 | 67 | 193 | 6.0 | 20.0 | 0.00 | 0.00 | 0.00 | 26 | 1023.7 |
| 20260510174601 | 67 | 168 | 9.0 | 13.0 | 0.00 | 0.00 | 0.00 | 27 | 1023.8 |
| 20260510173054 | 66 | 147 | 9.0 | 13.0 | 0.00 | 0.00 | 0.00 | 27 | 1023.9 |
| 20260510171551 | 65 | 147 | 5.0 | 14.0 | 0.00 | 0.00 | 0.00 | 29 | 1023.9 |
| 20260510170051 | 65 | 157 | 7.0 | 18.0 | 0.00 | 0.00 | 0.00 | 29 | 1023.9 |
| 20260510164552 | 65 | 218 | 9.0 | 18.0 | 0.00 | 0.00 | 0.00 | 28 | 1023.8 |
| 20260510163040 | 65 | 139 | 8.0 | 14.0 | 0.00 | 0.00 | 0.00 | 30 | 1023.7 |
| 20260510161536 | 65 | 214 | 11.0 | 21.0 | 0.00 | 0.00 | 0.00 | 31 | 1023.6 |
| 20260510160032 | 64 | 187 | 9.0 | 13.0 | 0.00 | 0.00 | 0.00 | 28 | 1023.6 |
| 20260510154543 | 64 | 193 | 6.0 | 18.0 | 0.00 | 0.00 | 0.00 | 28 | 1023.6 |
| 20260510153026 | 63 | 190 | 3.0 | 15.0 | 0.00 | 0.00 | 0.00 | 30 | 1023.5 |
| 20260510151520 | 64 | 129 | 6.0 | 11.0 | 0.00 | 0.00 | 0.00 | 29 | 1023.3 |
| 20260510150016 | 64 | 193 | 7.0 | 14.0 | 0.00 | 0.00 | 0.00 | 29 | 1023.2 |
| 20260510144520 | 63 | 125 | 8.0 | 15.0 | 0.00 | 0.00 | 0.00 | 29 | 1023.2 |
| 20260510143007 | 62 | 139 | 4.0 | 13.0 | 0.00 | 0.00 | 0.00 | 30 | 1023.1 |
| 20260510141503 | 62 | 149 | 1.0 | 8.0 | 0.00 | 0.00 | 0.00 | 31 | 1023.0 |
| 20260510140058 | 60 | 75 | 1.0 | 4.0 | 0.00 | 0.00 | 0.00 | 33 | 1022.8 |
| 20260510134555 | 59 | 75 | 2.0 | 6.0 | 0.00 | 0.00 | 0.00 | 34 | 1022.7 |
| 20260510133051 | 58 | 108 | 2.0 | 6.0 | 0.00 | 0.00 | 0.00 | 35 | 1022.7 |
| 20260510131551 | 58 | 102 | 2.0 | 7.0 | 0.00 | 0.00 | 0.00 | 34 | 1022.5 |
| 20260510130048 | 58 | 102 | 1.0 | 4.0 | 0.00 | 0.00 | 0.00 | 34 | 1022.2 |
| 20260510124543 | 58 | 77 | 3.0 | 8.0 | 0.00 | 0.00 | 0.00 | 33 | 1022.0 |
| 20260510123046 | 58 | 108 | 2.0 | 6.0 | 0.00 | 0.00 | 0.00 | 33 | 1022.0 |
| 20260510121540 | 59 | 114 | 3.0 | 7.0 | 0.00 | 0.00 | 0.00 | 31 | 1021.9 |
| 20260510120036 | 60 | 111 | 1.0 | 6.0 | 0.00 | 0.00 | 0.00 | 29 | 1021.8 |
| 20260510114540 | 60 | 80 | 1.0 | 6.0 | 0.00 | 0.00 | 0.00 | 28 | 1021.8 |
| 20260510113031 | 60 | 75 | 3.0 | 15.0 | 0.00 | 0.00 | 0.00 | 28 | 1021.5 |
| 20260510111531 | 61 | 134 | 6.0 | 15.0 | 0.00 | 0.00 | 0.00 | 28 | 1021.5 |
| 20260510110035 | 61 | 143 | 4.0 | 8.0 | 0.00 | 0.00 | 0.00 | 24 | 1021.3 |
| 20260510104529 | 59 | 179 | 2.0 | 8.0 | 0.00 | 0.00 | 0.00 | 26 | 1021.2 |
| 20260510103030 | 58 | 189 | 3.0 | 6.0 | 0.00 | 0.00 | 0.00 | 28 | 1021.5 |
| 20260510101528 | 57 | 115 | 1.0 | 4.0 | 0.00 | 0.00 | 0.00 | 30 | 1021.1 |
| 20260510100024 | 58 | 105 | 2.0 | 6.0 | 0.00 | 0.00 | 0.00 | 31 | 1021.1 |
| 20260510094521 | 58 | 80 | 1.0 | 5.0 | 0.00 | 0.00 | 0.00 | 31 | 1020.8 |
| 20260510093026 | 58 | 99 | 1.0 | 6.0 | 0.00 | 0.00 | 0.00 | 30 | 1020.8 |
| 20260510091520 | 59 | 100 | 2.0 | 6.0 | 0.00 | 0.00 | 0.00 | 29 | 1020.5 |
| 20260510090015 | 59 | 61 | 3.0 | 6.0 | 0.00 | 0.00 | 0.00 | 27 | 1020.1 |
| 20260510084515 | 59 | 41 | 2.0 | 8.0 | 0.00 | 0.00 | 0.00 | 27 | 1020.1 |
| 20260510083011 | 59 | 29 | 2.0 | 6.0 | 0.00 | 0.00 | 0.00 | 26 | 1020.0 |
| 20260510081510 | 59 | 52 | 2.0 | 5.0 | 0.00 | 0.00 | 0.00 | 26 | 1019.9 |
| 20260510080012 | 59 | 65 | 1.0 | 5.0 | 0.00 | 0.00 | 0.00 | 27 | 1020.0 |
| 20260510074508 | 59 | 68 | 2.0 | 5.0 | 0.00 | 0.00 | 0.00 | 26 | 1020.0 |
| 20260510073009 | 60 | 38 | 1.0 | 5.0 | 0.00 | 0.00 | 0.00 | 26 | 1019.9 |
| 20260510071508 | 61 | 41 | 3.0 | 5.0 | 0.00 | 0.00 | 0.00 | 25 | 1019.9 |
| 20260510070001 | 62 | 58 | 2.0 | 9.0 | 0.00 | 0.00 | 0.00 | 24 | 1019.9 |
| 20260510064636 | 62 | 359 | 5.0 | 11.0 | 0.00 | 0.00 | 0.00 | 24 | 1019.8 |
| 20260510063056 | 62 | 345 | 4.0 | 9.0 | 0.00 | 0.00 | 0.00 | 24 | 1019.9 |
| 20260510061553 | 62 | 18 | 3.0 | 8.0 | 0.00 | 0.00 | 0.00 | 23 | 1019.8 |
| 20260510060051 | 63 | 31 | 3.0 | 5.0 | 0.00 | 0.00 | 0.00 | 22 | 1019.7 |
| 20260510054550 | 63 | 12 | 2.0 | 9.0 | 0.00 | 0.00 | 0.00 | 21 | 1019.6 |
| 20260510053050 | 64 | 29 | 7.0 | 11.0 | 0.00 | 0.00 | 0.00 | 21 | 1019.6 |
| 20260510051556 | 64 | 4 | 8.0 | 11.0 | 0.00 | 0.00 | 0.00 | 20 | 1019.6 |
| 20260510050051 | 65 | 354 | 6.0 | 12.0 | 0.00 | 0.00 | 0.00 | 19 | 1019.5 |
| 20260510044548 | 66 | 359 | 5.0 | 11.0 | 0.00 | 0.00 | 0.00 | 18 | 1019.5 |
| 20260510043048 | 65 | 4 | 4.0 | 8.0 | 0.00 | 0.00 | 0.00 | 17 | 1019.6 |
| 20260510041547 | 65 | 14 | 3.0 | 8.0 | 0.00 | 0.00 | 0.00 | 16 | 1019.5 |
| 20260510040049 | 66 | 21 | 4.0 | 9.0 | 0.00 | 0.00 | 0.00 | 16 | 1019.3 |
| 20260510034607 | 67 | 8 | 6.0 | 11.0 | 0.00 | 0.00 | 0.00 | 16 | 1019.3 |
| 20260510033051 | 68 | 320 | 5.0 | 13.0 | 0.00 | 0.00 | 0.00 | 14 | 1019.1 |
| 20260510031546 | 68 | 354 | 6.0 | 11.0 | 0.00 | 0.00 | 0.00 | 14 | 1018.9 |
| 20260510030045 | 69 | 331 | 3.0 | 6.0 | 0.00 | 0.00 | 0.00 | 13 | 1018.7 |
| 20260510024545 | 70 | 292 | 2.0 | 6.0 | 0.00 | 0.00 | 0.00 | 13 | 1018.5 |
| 20260510023044 | 70 | 301 | 3.0 | 11.0 | 0.00 | 0.00 | 0.00 | 13 | 1018.3 |
| 20260510021550 | 71 | 282 | 4.0 | 11.0 | 0.00 | 0.00 | 0.00 | 12 | 1018.2 |
| 20260510020043 | 72 | 272 | 8.0 | 16.0 | 0.00 | 0.00 | 0.00 | 12 | 1018.1 |
| 20260510014548 | 73 | 283 | 11.0 | 17.0 | 0.00 | 0.00 | 0.00 | 11 | 1017.9 |
| 20260510013043 | 74 | 267 | 14.0 | 20.0 | 0.00 | 0.00 | 0.00 | 10 | 1017.7 |
| 20260510011542 | 74 | 286 | 10.0 | 21.0 | 0.00 | 0.00 | 0.00 | 11 | 1017.7 |
| 20260510010046 | 74 | 312 | 10.0 | 18.0 | 0.00 | 0.00 | 0.00 | 11 | 1017.5 |
| 20260510004540 | 74 | 310 | 7.0 | 23.0 | 0.00 | 0.00 | 0.00 | 10 | 1017.5 |
| 20260510003053 | 74 | 335 | 12.0 | 24.0 | 0.00 | 0.00 | 0.00 | 10 | 1017.6 |
| 20260510001539 | 75 | 324 | 10.0 | 20.0 | 0.00 | 0.00 | 0.00 | 10 | 1017.4 |
| 20260510000039 | 75 | 285 | 11.0 | 20.0 | 0.00 | 0.00 | 0.00 | 10 | 1017.4 |
| 20260509234539 | 75 | 225 | 17.0 | 28.0 | 0.00 | 0.00 | 0.00 | 10 | 1017.4 |
| 20260509233037 | 75 | 282 | 7.0 | 21.0 | 0.00 | 0.00 | 0.00 | 10 | 1017.3 |
| 20260509231536 | 76 | 303 | 14.0 | 25.0 | 0.00 | 0.00 | 0.00 | 10 | 1017.4 |